FW9914 Weather Reports


Display with metric or nautical units.
time (UTC)temp
F
wind
direction
speed
MPH
gust
MPH
rain 1hr
in
rain 24hr
in
rain mn
in
humidity
%
barometer
mb
20260507210143 72 157 0.0 0.0 0.00 0.00 0.00 27 1011.0
20260507190150 73 157 0.0 0.0 0.00 0.00 0.00 29 1011.0
20260507180118 70 157 0.0 0.0 0.00 0.00 0.00 34 1011.3
20260507170141 66 158 0.0 0.0 0.00 0.00 0.00 38 1011.4
20260507160129 63 157 0.0 0.0 0.00 0.00 0.00 43 1011.1
20260507150137 57 157 0.0 0.0 0.00 0.00 0.00 48 1011.3
20260507140134 53 158 0.0 0.0 0.00 0.00 0.00 57 1011.4
20260507130117 47 158 0.0 0.0 0.00 0.00 0.00 69 1010.4
20260507120116 42 157 0.0 0.0 0.00 0.00 0.00 78 1010.2
20260507110109 41 165 0.0 0.0 0.00 0.00 0.00 86 1010.0
20260507100145 41 165 0.0 0.0 0.00 0.00 0.00 85 1009.8
20260507090124 44 165 0.0 0.0 0.00 0.00 0.00 85 1009.6
20260507080152 48 165 0.0 0.0 0.00 0.00 0.00 80 1009.7
20260507070109 47 165 0.0 0.0 0.00 0.00 0.00 82 1009.4
20260507060058 47 165 0.0 0.0 0.00 0.00 0.00 81 1009.1
20260507050120 51 165 0.0 0.0 0.00 0.00 0.00 77 1009.1
20260507040149 53 165 0.0 0.0 0.00 0.00 0.00 71 1009.0
20260507030136 58 157 0.0 0.0 0.00 0.00 0.00 52 1008.8
20260507020147 62 157 0.0 0.0 0.00 0.00 0.00 44 1007.0
20260507010201 63 157 0.0 0.0 0.00 0.00 0.00 46 1007.0
20260507000114 64 157 0.0 0.0 0.00 0.00 0.00 34 1006.3
20260506230155 69 157 0.0 0.0 0.00 0.00 0.00 33 1006.5
20260506220117 68 157 0.0 0.0 0.00 0.00 0.00 33 1006.9